Skip Page Navigation
NASA JPL Caltech
NASA Logo - Jet Propulsion Laboratory + View the NASA Portal
+ Near-Earth Object (NEO) Program
Search JPL
JPL Home Earth Solar System Stars & Galaxies Technology
JPL Solar System Dynamics
BODIES ORBITS EPHEMERIDES TOOLS PHYSICAL DATA DISCOVERY FAQ SITE MAP
JPL Small-Body Database Browser
Search: [ help ]  
48474 (1991 UR)
Classification: Main-belt Asteroid          SPK-ID: 2048474
Ephemeris | Orbit Diagram | Orbital Elements | Physical Parameters | Discovery Circumstances ]

[ show orbit diagram ]
Orbital Elements at Epoch 2457000.5 (2014-Dec-09.0) TDB
Reference: JPL 13 (heliocentric ecliptic J2000)
 Element Value Uncertainty (1-sigma)   Units 
e .1286672089303383 1.0372e-07  
a 2.318393210979987 1.5179e-08 AU
q 2.020092027320147 2.4351e-07 AU
i 6.928903979219496 9.1815e-06 deg
node 10.47666117337556 4.032e-05 deg
peri 332.0828917415066 4.5436e-05 deg
M 235.40860744665 2.2409e-05 deg
tp 2457446.736006810375
(2016-Feb-28.23600681)
8.1769e-05 JED
period 1289.37448373849
3.53
1.2663e-05
3.467e-08
d
yr
n .2792051529949579 2.7421e-09 deg/d
Q 2.616694394639827 1.7132e-08 AU
  Orbit Determination Parameters
   # obs. used (total)      955  
   data-arc span      11630 days (31.84 yr)  
   first obs. used      1983-04-17  
   last obs. used      2015-02-18  
   planetary ephem.      DE431  
   SB-pert. ephem.      SB431-BIG16  
   condition code      0  
   fit RMS      .53511  
   data source      ORB  
   producer      Otto Matic  
   solution date      2015-Apr-07 18:13:06  

Additional Information
 Earth MOID = 1.01603 AU 
 T_jup = 3.559 
[ show covariance matrix ]

Ephemeris | Orbit Diagram | Orbital Elements | Physical Parameters | Discovery Circumstances ]

Physical Parameter Table
Parameter Symbol Value Units Sigma Reference Notes
absolute magnitude H 14.2 mag n/a MPO253675  

48474 (1991 UR)          Discovered 1991-Oct-18 by Ueda, S., Kaneda, H. at Kushiro
Reference: 20021120/Numbers.arcLast Updated: 2004-04-19

Alternate Designations
 1991 UR = 1998 SD22 
Ephemeris | Orbit Diagram | Orbital Elements | Physical Parameters | Discovery Circumstances ]
ABOUT SSD CREDITS/AWARDS PRIVACY/COPYRIGHT GLOSSARY LINKS
FirstGov 2015-Jul-05 23:16 UT
(server date/time)  
NASA Home Page
Site Manager:   Ryan S. Park
Webmaster  Alan B. Chamberlin